Time,TemperatureF,DewpointF,PressureIn,WindDirection,WindDirectionDegrees,WindSpeedMPH,WindSpeedGustMPH,Humidity,HourlyPrecipIn,Conditions,Clouds,dailyrainin,SoftwareType,DateUTC
2013-06-11 00:00:00,87.5,30.6,29.65,ESE,104,0.0,0.0,13,0.00,,,0.00,Wunderground v.1.15,2013-06-11 06:00:00,
2013-06-11 00:05:00,87.7,28.8,29.66,WNW,286,1.0,1.0,12,0.00,,,0.00,Wunderground v.1.15,2013-06-11 06:05:00,
2013-06-11 00:10:00,88.2,31.1,29.66,WNW,292,1.0,1.0,13,0.00,,,0.00,Wunderground v.1.15,2013-06-11 06:10:00,
2013-06-11 00:15:00,88.1,29.1,29.66,WNW,292,0.0,1.0,12,0.00,,,0.00,Wunderground v.1.15,2013-06-11 06:15:00,
2013-06-11 00:25:00,87.6,30.7,29.66,WNW,292,0.0,0.0,13,0.00,,,0.00,Wunderground v.1.15,2013-06-11 06:25:00,
2013-06-11 00:30:00,87.1,30.3,29.67,WNW,292,0.0,1.0,13,0.00,,,0.00,Wunderground v.1.15,2013-06-11 06:30:00,
2013-06-11 00:35:00,86.6,29.9,29.67,WNW,292,0.0,1.0,13,0.00,,,0.00,Wunderground v.1.15,2013-06-11 06:35:00,
2013-06-11 00:40:00,86.1,29.5,29.67,WNW,292,0.0,0.0,13,0.00,,,0.00,Wunderground v.1.15,2013-06-11 06:40:00,
2013-06-11 00:45:00,85.6,27.1,29.67,WNW,292,0.0,0.0,12,0.00,,,0.00,Wunderground v.1.15,2013-06-11 06:45:00,
2013-06-11 00:50:00,85.3,26.9,29.67,WNW,292,0.0,0.0,12,0.00,,,0.00,Wunderground v.1.15,2013-06-11 06:50:00,
2013-06-11 00:55:00,85.2,22.5,29.67,WNW,292,0.0,0.0,10,0.00,,,0.00,Wunderground v.1.15,2013-06-11 06:55:00,
2013-06-11 01:00:00,85.4,24.9,29.67,WNW,292,0.0,0.0,11,0.00,,,0.00,Wunderground v.1.15,2013-06-11 07:00:00,
2013-06-11 01:05:00,85.5,25.0,29.67,WNW,292,0.0,0.0,11,0.00,,,0.00,Wunderground v.1.15,2013-06-11 07:05:00,
2013-06-11 01:10:00,85.5,22.7,29.68,WNW,292,0.0,0.0,10,0.00,,,0.00,Wunderground v.1.15,2013-06-11 07:10:00,
2013-06-11 01:15:00,85.5,22.7,29.68,WNW,292,0.0,0.0,10,0.00,,,0.00,Wunderground v.1.15,2013-06-11 07:15:00,
2013-06-11 01:20:00,85.3,24.8,29.68,WNW,292,0.0,0.0,11,0.00,,,0.00,Wunderground v.1.15,2013-06-11 07:20:00,
2013-06-11 01:25:00,85.1,24.7,29.69,WNW,292,0.0,0.0,11,0.00,,,0.00,Wunderground v.1.15,2013-06-11 07:25:00,
2013-06-11 01:30:00,84.7,24.4,29.69,WNW,292,0.0,0.0,11,0.00,,,0.00,Wunderground v.1.15,2013-06-11 07:30:00,
2013-06-11 01:35:00,84.1,23.9,29.69,WNW,292,0.0,0.0,11,0.00,,,0.00,Wunderground v.1.15,2013-06-11 07:35:00,
2013-06-11 01:40:00,83.6,25.6,29.69,WNW,292,0.0,0.0,12,0.00,,,0.00,Wunderground v.1.15,2013-06-11 07:40:00,
2013-06-11 01:45:00,83.0,25.1,29.69,WNW,292,0.0,0.0,12,0.00,,,0.00,Wunderground v.1.15,2013-06-11 07:45:00,
2013-06-11 01:50:00,82.6,26.7,29.69,WNW,292,0.0,0.0,13,0.00,,,0.00,Wunderground v.1.15,2013-06-11 07:50:00,
2013-06-11 01:55:00,82.2,29.9,29.70,WNW,292,0.0,0.0,15,0.00,,,0.00,Wunderground v.1.15,2013-06-11 07:55:00,
2013-06-11 02:00:00,81.8,29.6,29.70,WNW,292,0.0,0.0,15,0.00,,,0.00,Wunderground v.1.15,2013-06-11 08:00:00,
2013-06-11 02:05:00,81.4,30.9,29.70,WNW,292,0.0,0.0,16,0.00,,,0.00,Wunderground v.1.15,2013-06-11 08:05:00,
2013-06-11 02:15:00,80.6,30.2,29.70,WNW,292,0.0,0.0,16,0.00,,,0.00,Wunderground v.1.15,2013-06-11 08:15:00,
2013-06-11 02:20:00,80.1,29.8,29.70,WNW,292,0.0,0.0,16,0.00,,,0.00,Wunderground v.1.15,2013-06-11 08:20:00,
2013-06-11 02:25:00,79.8,29.6,29.70,WNW,292,0.0,0.0,16,0.00,,,0.00,Wunderground v.1.15,2013-06-11 08:25:00,
2013-06-11 02:35:00,79.0,28.9,29.70,WNW,292,0.0,0.0,16,0.00,,,0.00,Wunderground v.1.15,2013-06-11 08:35:00,
2013-06-11 02:40:00,78.7,31.6,29.70,WNW,292,0.0,0.0,18,0.00,,,0.00,Wunderground v.1.15,2013-06-11 08:40:00,
2013-06-11 02:45:00,78.4,32.7,29.70,WNW,292,0.0,0.0,19,0.00,,,0.00,Wunderground v.1.15,2013-06-11 08:45:00,
2013-06-11 02:50:00,78.1,33.7,29.70,WNW,292,0.0,0.0,20,0.00,,,0.00,Wunderground v.1.15,2013-06-11 08:50:00,
2013-06-11 02:55:00,77.9,34.8,29.69,WNW,292,0.0,0.0,21,0.00,,,0.00,Wunderground v.1.15,2013-06-11 08:55:00,
2013-06-11 03:05:00,77.6,35.7,29.69,WNW,292,0.0,0.0,22,0.00,,,0.00,Wunderground v.1.15,2013-06-11 09:05:00,
2013-06-11 03:10:00,77.5,35.6,29.69,WNW,292,0.0,0.0,22,0.00,,,0.00,Wunderground v.1.15,2013-06-11 09:10:00,
2013-06-11 03:15:00,77.3,35.5,29.69,WNW,292,0.0,0.0,22,0.00,,,0.00,Wunderground v.1.15,2013-06-11 09:15:00,
2013-06-11 03:25:00,76.8,35.1,29.69,WNW,292,0.0,0.0,22,0.00,,,0.00,Wunderground v.1.15,2013-06-11 09:25:00,
2013-06-11 03:30:00,76.6,36.0,29.69,WNW,292,0.0,0.0,23,0.00,,,0.00,Wunderground v.1.15,2013-06-11 09:30:00,
2013-06-11 03:40:00,76.1,35.6,29.69,WNW,292,0.0,0.0,23,0.00,,,0.00,Wunderground v.1.15,2013-06-11 09:40:00,
2013-06-11 03:45:00,75.7,35.3,29.69,WNW,292,0.0,0.0,23,0.00,,,0.00,Wunderground v.1.15,2013-06-11 09:45:00,
2013-06-11 03:50:00,75.4,35.0,29.69,WNW,292,0.0,0.0,23,0.00,,,0.00,Wunderground v.1.15,2013-06-11 09:50:00,
2013-06-11 03:55:00,75.0,34.7,29.69,WNW,292,0.0,0.0,23,0.00,,,0.00,Wunderground v.1.15,2013-06-11 09:55:00,
2013-06-11 04:00:00,74.7,34.4,29.70,WNW,292,0.0,0.0,23,0.00,,,0.00,Wunderground v.1.15,2013-06-11 10:00:00,
2013-06-11 04:05:00,74.5,33.1,29.70,WNW,292,0.0,0.0,22,0.00,,,0.00,Wunderground v.1.15,2013-06-11 10:05:00,
2013-06-11 04:10:00,74.3,33.0,29.70,WNW,292,0.0,0.0,22,0.00,,,0.00,Wunderground v.1.15,2013-06-11 10:10:00,
2013-06-11 04:15:00,74.2,31.7,29.70,WNW,292,0.0,0.0,21,0.00,,,0.00,Wunderground v.1.15,2013-06-11 10:15:00,
2013-06-11 04:20:00,74.0,31.6,29.70,WNW,292,0.0,0.0,21,0.00,,,0.00,Wunderground v.1.15,2013-06-11 10:20:00,
2013-06-11 04:30:00,73.7,32.5,29.71,WNW,292,0.0,0.0,22,0.00,,,0.00,Wunderground v.1.15,2013-06-11 10:30:00,
2013-06-11 04:35:00,73.5,33.4,29.71,WNW,292,0.0,0.0,23,0.00,,,0.00,Wunderground v.1.15,2013-06-11 10:35:00,
2013-06-11 04:40:00,73.4,34.4,29.71,WNW,292,0.0,0.0,24,0.00,,,0.00,Wunderground v.1.15,2013-06-11 10:40:00,
2013-06-11 04:45:00,73.5,34.5,29.71,WNW,292,0.0,0.0,24,0.00,,,0.00,Wunderground v.1.15,2013-06-11 10:45:00,
2013-06-11 04:50:00,73.6,34.6,29.71,WNW,292,0.0,0.0,24,0.00,,,0.00,Wunderground v.1.15,2013-06-11 10:50:00,
2013-06-11 04:55:00,73.6,34.6,29.72,WNW,293,0.0,0.0,24,0.00,,,0.00,Wunderground v.1.15,2013-06-11 10:55:00,
2013-06-11 05:00:00,73.5,35.5,29.72,WNW,293,0.0,0.0,25,0.00,,,0.00,Wunderground v.1.15,2013-06-11 11:00:00,
2013-06-11 05:05:00,73.3,35.3,29.72,WNW,293,0.0,0.0,25,0.00,,,0.00,Wunderground v.1.15,2013-06-11 11:05:00,
2013-06-11 05:10:00,73.1,34.1,29.72,WNW,293,0.0,0.0,24,0.00,,,0.00,Wunderground v.1.15,2013-06-11 11:10:00,
2013-06-11 05:15:00,73.1,34.1,29.72,WNW,292,0.0,0.0,24,0.00,,,0.00,Wunderground v.1.15,2013-06-11 11:15:00,
2013-06-11 05:20:00,73.1,34.1,29.72,WNW,292,0.0,0.0,24,0.00,,,0.00,Wunderground v.1.15,2013-06-11 11:20:00,
2013-06-11 05:25:00,73.1,34.1,29.72,WNW,292,0.0,0.0,24,0.00,,,0.00,Wunderground v.1.15,2013-06-11 11:25:00,
2013-06-11 05:30:00,73.1,34.1,29.73,WNW,292,0.0,0.0,24,0.00,,,0.00,Wunderground v.1.15,2013-06-11 11:30:00,
2013-06-11 05:35:00,72.8,33.9,29.73,WNW,292,0.0,0.0,24,0.00,,,0.00,Wunderground v.1.15,2013-06-11 11:35:00,
2013-06-11 05:40:00,72.5,33.6,29.73,WNW,292,0.0,0.0,24,0.00,,,0.00,Wunderground v.1.15,2013-06-11 11:40:00,
2013-06-11 05:45:00,72.2,33.4,29.73,WNW,292,0.0,0.0,24,0.00,,,0.00,Wunderground v.1.15,2013-06-11 11:45:00,
2013-06-11 05:50:00,71.9,33.1,29.73,WNW,292,0.0,0.0,24,0.00,,,0.00,Wunderground v.1.15,2013-06-11 11:50:00,
2013-06-11 05:55:00,71.6,32.9,29.73,WNW,292,0.0,0.0,24,0.00,,,0.00,Wunderground v.1.15,2013-06-11 11:55:00,
2013-06-11 06:00:00,71.3,32.6,29.73,WNW,292,0.0,0.0,24,0.00,,,0.00,Wunderground v.1.15,2013-06-11 12:00:00,
2013-06-11 06:05:00,71.1,33.5,29.73,WNW,292,0.0,0.0,25,0.00,,,0.00,Wunderground v.1.15,2013-06-11 12:05:00,
2013-06-11 06:10:00,70.8,33.2,29.74,WNW,292,0.0,0.0,25,0.00,,,0.00,Wunderground v.1.15,2013-06-11 12:10:00,
2013-06-11 06:15:00,70.4,32.9,29.75,WNW,292,0.0,0.0,25,0.00,,,0.00,Wunderground v.1.15,2013-06-11 12:15:00,
2013-06-11 06:20:00,70.0,33.5,29.75,WNW,292,0.0,0.0,26,0.00,,,0.00,Wunderground v.1.15,2013-06-11 12:20:00,
2013-06-11 06:25:00,69.7,32.3,29.75,WNW,292,0.0,0.0,25,0.00,,,0.00,Wunderground v.1.15,2013-06-11 12:25:00,
2013-06-11 06:35:00,69.4,31.0,29.76,WNW,292,0.0,0.0,24,0.00,,,0.00,Wunderground v.1.15,2013-06-11 12:35:00,
2013-06-11 06:40:00,69.5,31.1,29.76,WNW,292,0.0,0.0,24,0.00,,,0.00,Wunderground v.1.15,2013-06-11 12:40:00,
2013-06-11 06:45:00,69.6,31.2,29.76,WNW,292,0.0,0.0,24,0.00,,,0.00,Wunderground v.1.15,2013-06-11 12:45:00,
2013-06-11 06:50:00,69.7,32.3,29.77,WNW,292,0.0,0.0,25,0.00,,,0.00,Wunderground v.1.15,2013-06-11 12:50:00,
2013-06-11 07:00:00,69.9,32.5,29.77,WNW,292,0.0,0.0,25,0.00,,,0.00,Wunderground v.1.15,2013-06-11 13:00:00,
2013-06-11 07:05:00,70.1,31.6,29.77,WNW,292,0.0,0.0,24,0.00,,,0.00,Wunderground v.1.15,2013-06-11 13:05:00,
2013-06-11 07:10:00,70.2,31.7,29.78,WNW,292,0.0,0.0,24,0.00,,,0.00,Wunderground v.1.15,2013-06-11 13:10:00,
2013-06-11 07:15:00,70.5,31.9,29.78,WNW,292,0.0,0.0,24,0.00,,,0.00,Wunderground v.1.15,2013-06-11 13:15:00,
2013-06-11 07:20:00,70.8,30.0,29.78,WNW,292,0.0,2.0,22,0.00,,,0.00,Wunderground v.1.15,2013-06-11 13:20:00,
2013-06-11 07:25:00,71.3,29.3,29.78,WNW,293,0.0,2.0,21,0.00,,,0.00,Wunderground v.1.15,2013-06-11 13:25:00,
2013-06-11 07:30:00,72.1,30.0,29.78,WNW,293,0.0,0.0,21,0.00,,,0.00,Wunderground v.1.15,2013-06-11 13:30:00,
2013-06-11 07:35:00,73.0,29.5,29.78,WNW,294,0.0,2.0,20,0.00,,,0.00,Wunderground v.1.15,2013-06-11 13:35:00,
2013-06-11 07:40:00,73.7,28.8,29.78,WNW,295,1.0,1.0,19,0.00,,,0.00,Wunderground v.1.15,2013-06-11 13:40:00,
2013-06-11 07:45:00,74.2,29.3,29.78,WNW,295,1.0,1.0,19,0.00,,,0.00,Wunderground v.1.15,2013-06-11 13:45:00,
2013-06-11 07:50:00,74.8,28.4,29.79,NW,304,0.0,0.0,18,0.00,,,0.00,Wunderground v.1.15,2013-06-11 13:50:00,
2013-06-11 07:55:00,75.5,29.0,29.79,NW,304,0.0,0.0,18,0.00,,,0.00,Wunderground v.1.15,2013-06-11 13:55:00,
2013-06-11 08:00:00,75.9,30.7,29.79,NW,304,0.0,0.0,19,0.00,,,0.00,Wunderground v.1.15,2013-06-11 14:00:00,
2013-06-11 08:05:00,76.3,31.0,29.79,NW,304,0.0,0.0,19,0.00,,,0.00,Wunderground v.1.15,2013-06-11 14:05:00,
2013-06-11 08:10:00,76.9,28.7,29.79,NW,304,0.0,0.0,17,0.00,,,0.00,Wunderground v.1.15,2013-06-11 14:10:00,
2013-06-11 08:15:00,77.6,29.3,29.79,NW,305,0.0,1.0,17,0.00,,,0.00,Wunderground v.1.15,2013-06-11 14:15:00,
2013-06-11 08:20:00,78.2,31.2,29.79,NW,305,0.0,0.0,18,0.00,,,0.00,Wunderground v.1.15,2013-06-11 14:20:00,
2013-06-11 08:25:00,78.6,30.1,29.79,NW,305,0.0,0.0,17,0.00,,,0.00,Wunderground v.1.15,2013-06-11 14:25:00,
2013-06-11 08:30:00,79.0,28.9,29.78,NW,305,0.0,3.0,16,0.00,,,0.00,Wunderground v.1.15,2013-06-11 14:30:00,
2013-06-11 08:35:00,79.6,27.9,29.79,NW,305,0.0,3.0,15,0.00,,,0.00,Wunderground v.1.15,2013-06-11 14:35:00,
2013-06-11 08:40:00,80.2,28.3,29.79,NW,305,0.0,0.0,15,0.00,,,0.00,Wunderground v.1.15,2013-06-11 14:40:00,
2013-06-11 08:45:00,80.5,26.9,29.78,NW,305,0.0,0.0,14,0.00,,,0.00,Wunderground v.1.15,2013-06-11 14:45:00,
2013-06-11 08:50:00,80.7,25.3,29.78,NW,305,0.0,0.0,13,0.00,,,0.00,Wunderground v.1.15,2013-06-11 14:50:00,
2013-06-11 08:55:00,81.0,27.3,29.78,NW,305,0.0,0.0,14,0.00,,,0.00,Wunderground v.1.15,2013-06-11 14:55:00,
2013-06-11 09:00:00,81.1,29.1,29.78,NW,305,0.0,1.0,15,0.00,,,0.00,Wunderground v.1.15,2013-06-11 15:00:00,
2013-06-11 09:05:00,81.5,27.7,29.78,NW,305,0.0,1.0,14,0.00,,,0.00,Wunderground v.1.15,2013-06-11 15:05:00,
2013-06-11 09:10:00,82.1,26.4,29.78,NW,305,0.0,0.0,13,0.00,,,0.00,Wunderground v.1.15,2013-06-11 15:10:00,
2013-06-11 09:15:00,82.5,26.7,29.78,NW,305,0.0,0.0,13,0.00,,,0.00,Wunderground v.1.15,2013-06-11 15:15:00,
2013-06-11 09:20:00,82.7,26.8,29.78,NW,305,0.0,0.0,13,0.00,,,0.00,Wunderground v.1.15,2013-06-11 15:20:00,
2013-06-11 09:25:00,82.8,26.9,29.78,NW,305,0.0,0.0,13,0.00,,,0.00,Wunderground v.1.15,2013-06-11 15:25:00,
2013-06-11 09:30:00,83.0,27.1,29.78,NW,305,0.0,2.0,13,0.00,,,0.00,Wunderground v.1.15,2013-06-11 15:30:00,
2013-06-11 09:35:00,83.3,27.3,29.77,NW,305,0.0,2.0,13,0.00,,,0.00,Wunderground v.1.15,2013-06-11 15:35:00,
2013-06-11 09:40:00,83.6,25.6,29.77,NW,305,0.0,0.0,12,0.00,,,0.00,Wunderground v.1.15,2013-06-11 15:40:00,
2013-06-11 09:45:00,84.0,25.9,29.77,NNW,327,0.0,0.0,12,0.00,,,0.00,Wunderground v.1.15,2013-06-11 15:45:00,
2013-06-11 09:55:00,84.2,24.0,29.76,NNW,327,0.0,1.0,11,0.00,,,0.00,Wunderground v.1.15,2013-06-11 15:55:00,
2013-06-11 10:00:00,84.5,26.3,29.77,NNW,327,0.0,0.0,12,0.00,,,0.00,Wunderground v.1.15,2013-06-11 16:00:00,
2013-06-11 10:05:00,84.8,26.5,29.76,NNW,327,0.0,0.0,12,0.00,,,0.00,Wunderground v.1.15,2013-06-11 16:05:00,
2013-06-11 10:10:00,85.2,26.8,29.76,NNW,327,0.0,0.0,12,0.00,,,0.00,Wunderground v.1.15,2013-06-11 16:10:00,
2013-06-11 10:15:00,85.6,25.0,29.76,NNW,327,0.0,0.0,11,0.00,,,0.00,Wunderground v.1.15,2013-06-11 16:15:00,
2013-06-11 10:25:00,85.9,27.4,29.76,NNW,327,0.0,0.0,12,0.00,,,0.00,Wunderground v.1.15,2013-06-11 16:25:00,
2013-06-11 10:30:00,86.0,27.5,29.75,NNW,327,0.0,3.0,12,0.00,,,0.00,Wunderground v.1.15,2013-06-11 16:30:00,
2013-06-11 10:35:00,86.3,27.7,29.75,NNW,327,0.0,3.0,12,0.00,,,0.00,Wunderground v.1.15,2013-06-11 16:35:00,
2013-06-11 10:40:00,86.8,28.1,29.75,NNW,327,0.0,0.0,12,0.00,,,0.00,Wunderground v.1.15,2013-06-11 16:40:00,
2013-06-11 10:45:00,87.1,26.2,29.75,NNW,344,0.0,2.0,11,0.00,,,0.00,Wunderground v.1.15,2013-06-11 16:45:00,
2013-06-11 10:50:00,87.7,26.7,29.75,North,9,1.0,1.0,11,0.00,,,0.00,Wunderground v.1.15,2013-06-11 16:50:00,
2013-06-11 10:55:00,88.3,29.2,29.75,North,9,0.0,1.0,12,0.00,,,0.00,Wunderground v.1.15,2013-06-11 16:55:00,
2013-06-11 11:00:00,88.8,27.5,29.75,North,9,0.0,0.0,11,0.00,,,0.00,Wunderground v.1.15,2013-06-11 17:00:00,
2013-06-11 11:05:00,89.2,27.8,29.75,North,9,0.0,0.0,11,0.00,,,0.00,Wunderground v.1.15,2013-06-11 17:05:00,
2013-06-11 11:10:00,89.8,28.3,29.75,North,9,0.0,0.0,11,0.00,,,0.00,Wunderground v.1.15,2013-06-11 17:10:00,
2013-06-11 11:15:00,90.4,26.4,29.75,North,9,0.0,0.0,10,0.00,,,0.00,Wunderground v.1.15,2013-06-11 17:15:00,
2013-06-11 11:25:00,91.1,26.9,29.75,North,9,0.0,0.0,10,0.00,,,0.00,Wunderground v.1.15,2013-06-11 17:25:00,
2013-06-11 11:30:00,91.0,29.2,29.74,North,9,0.0,1.0,11,0.00,,,0.00,Wunderground v.1.15,2013-06-11 17:30:00,
2013-06-11 11:35:00,91.3,27.1,29.74,North,9,0.0,1.0,10,0.00,,,0.00,Wunderground v.1.15,2013-06-11 17:35:00,
2013-06-11 11:40:00,91.8,27.5,29.74,North,9,0.0,0.0,10,0.00,,,0.00,Wunderground v.1.15,2013-06-11 17:40:00,
2013-06-11 11:45:00,92.3,27.9,29.74,North,9,0.0,0.0,10,0.00,,,0.00,Wunderground v.1.15,2013-06-11 17:45:00,
2013-06-11 11:50:00,92.8,25.7,29.73,North,9,0.0,0.0,9,0.00,,,0.00,Wunderground v.1.15,2013-06-11 17:50:00,
2013-06-11 12:00:00,93.7,26.3,29.73,North,9,0.0,0.0,9,0.00,,,0.00,Wunderground v.1.15,2013-06-11 18:00:00,
2013-06-11 12:05:00,93.8,26.4,29.73,North,9,0.0,1.0,9,0.00,,,0.00,Wunderground v.1.15,2013-06-11 18:05:00,
2013-06-11 12:10:00,93.9,26.5,29.73,ESE,102,0.0,0.0,9,0.00,,,0.00,Wunderground v.1.15,2013-06-11 18:10:00,
2013-06-11 12:15:00,94.2,26.7,29.73,ESE,102,0.0,0.0,9,0.00,,,0.00,Wunderground v.1.15,2013-06-11 18:15:00,
2013-06-11 12:20:00,94.7,27.1,29.73,ESE,102,0.0,0.0,9,0.00,,,0.00,Wunderground v.1.15,2013-06-11 18:20:00,
2013-06-11 12:30:00,95.4,27.6,29.72,East,98,0.0,2.0,9,0.00,,,0.00,Wunderground v.1.15,2013-06-11 18:30:00,
2013-06-11 12:35:00,95.6,27.8,29.72,East,98,0.0,2.0,9,0.00,,,0.00,Wunderground v.1.15,2013-06-11 18:35:00,
2013-06-11 12:40:00,95.5,27.7,29.72,East,91,0.0,1.0,9,0.00,,,0.00,Wunderground v.1.15,2013-06-11 18:40:00,
2013-06-11 12:45:00,95.4,27.6,29.72,East,91,0.0,1.0,9,0.00,,,0.00,Wunderground v.1.15,2013-06-11 18:45:00,
2013-06-11 12:50:00,95.6,27.8,29.72,East,91,0.0,0.0,9,0.00,,,0.00,Wunderground v.1.15,2013-06-11 18:50:00,
2013-06-11 12:55:00,95.8,27.9,29.71,East,91,0.0,0.0,9,0.00,,,0.00,Wunderground v.1.15,2013-06-11 18:55:00,
2013-06-11 13:00:00,96.2,28.2,29.71,East,91,0.0,0.0,9,0.00,,,0.00,Wunderground v.1.15,2013-06-11 19:00:00,
2013-06-11 13:05:00,96.4,28.4,29.71,East,91,0.0,0.0,9,0.00,,,0.00,Wunderground v.1.15,2013-06-11 19:05:00,
2013-06-11 13:10:00,96.5,28.4,29.71,East,91,0.0,0.0,9,0.00,,,0.00,Wunderground v.1.15,2013-06-11 19:10:00,
2013-06-11 13:15:00,96.5,25.6,29.70,East,91,0.0,0.0,8,0.00,,,0.00,Wunderground v.1.15,2013-06-11 19:15:00,
2013-06-11 13:20:00,96.4,25.5,29.70,East,91,0.0,0.0,8,0.00,,,0.00,Wunderground v.1.15,2013-06-11 19:20:00,
2013-06-11 13:25:00,96.1,28.1,29.70,East,91,1.0,1.0,9,0.00,,,0.00,Wunderground v.1.15,2013-06-11 19:25:00,
2013-06-11 13:30:00,95.7,25.0,29.70,East,91,0.0,2.0,8,0.00,,,0.00,Wunderground v.1.15,2013-06-11 19:30:00,
2013-06-11 13:35:00,95.8,27.9,29.70,East,92,0.0,2.0,9,0.00,,,0.00,Wunderground v.1.15,2013-06-11 19:35:00,
2013-06-11 13:40:00,96.3,25.4,29.70,East,92,0.0,1.0,8,0.00,,,0.00,Wunderground v.1.15,2013-06-11 19:40:00,
2013-06-11 13:45:00,96.3,28.3,29.69,ENE,74,1.0,1.0,9,0.00,,,0.00,Wunderground v.1.15,2013-06-11 19:45:00,
2013-06-11 13:50:00,96.4,28.4,29.69,ENE,74,1.0,1.0,9,0.00,,,0.00,Wunderground v.1.15,2013-06-11 19:50:00,
2013-06-11 13:55:00,96.8,28.7,29.68,ENE,74,0.0,1.0,9,0.00,,,0.00,Wunderground v.1.15,2013-06-11 19:55:00,
2013-06-11 14:05:00,97.4,26.2,29.68,ENE,74,0.0,0.0,8,0.00,,,0.00,Wunderground v.1.15,2013-06-11 20:05:00,
2013-06-11 14:10:00,97.2,26.1,29.67,ENE,74,0.0,0.0,8,0.00,,,0.00,Wunderground v.1.15,2013-06-11 20:10:00,
2013-06-11 14:15:00,97.1,26.0,29.67,ENE,74,0.0,1.0,8,0.00,,,0.00,Wunderground v.1.15,2013-06-11 20:15:00,
2013-06-11 14:20:00,97.2,26.1,29.67,ENE,69,1.0,1.0,8,0.00,,,0.00,Wunderground v.1.15,2013-06-11 20:20:00,
2013-06-11 14:25:00,97.3,26.2,29.67,ENE,69,1.0,1.0,8,0.00,,,0.00,Wunderground v.1.15,2013-06-11 20:25:00,
2013-06-11 14:30:00,97.7,29.3,29.66,ENE,69,0.0,3.0,9,0.00,,,0.00,Wunderground v.1.15,2013-06-11 20:30:00,
2013-06-11 14:35:00,98.1,26.8,29.66,ENE,69,0.0,3.0,8,0.00,,,0.00,Wunderground v.1.15,2013-06-11 20:35:00,
2013-06-11 14:40:00,98.2,23.6,29.66,ESE,103,1.0,1.0,7,0.00,,,0.00,Wunderground v.1.15,2013-06-11 20:40:00,
2013-06-11 14:45:00,98.4,23.8,29.65,East,98,1.0,1.0,7,0.00,,,0.00,Wunderground v.1.15,2013-06-11 20:45:00,
2013-06-11 14:50:00,98.3,23.7,29.65,East,98,0.0,1.0,7,0.00,,,0.00,Wunderground v.1.15,2013-06-11 20:50:00,
2013-06-11 14:55:00,98.5,27.1,29.65,East,98,0.0,1.0,8,0.00,,,0.00,Wunderground v.1.15,2013-06-11 20:55:00,
2013-06-11 15:00:00,98.9,27.3,29.65,East,98,0.0,0.0,8,0.00,,,0.00,Wunderground v.1.15,2013-06-11 21:00:00,
2013-06-11 15:05:00,99.2,24.3,29.65,East,95,0.0,0.0,7,0.00,,,0.00,Wunderground v.1.15,2013-06-11 21:05:00,
2013-06-11 15:10:00,99.4,24.5,29.65,East,94,0.0,0.0,7,0.00,,,0.00,Wunderground v.1.15,2013-06-11 21:10:00,
2013-06-11 15:15:00,99.5,27.8,29.64,East,94,0.0,0.0,8,0.00,,,0.00,Wunderground v.1.15,2013-06-11 21:15:00,
2013-06-11 15:20:00,99.8,24.8,29.63,East,94,0.0,0.0,7,0.00,,,0.00,Wunderground v.1.15,2013-06-11 21:20:00,
2013-06-11 15:25:00,100.0,24.9,29.63,East,98,1.0,1.0,7,0.00,,,0.00,Wunderground v.1.15,2013-06-11 21:25:00,
2013-06-11 15:30:00,100.0,24.9,29.63,East,101,1.0,1.0,7,0.00,,,0.00,Wunderground v.1.15,2013-06-11 21:30:00,
2013-06-11 15:35:00,100.1,25.0,29.63,East,83,1.0,1.0,7,0.00,,,0.00,Wunderground v.1.15,2013-06-11 21:35:00,
2013-06-11 15:40:00,100.2,25.1,29.63,East,83,1.0,1.0,7,0.00,,,0.00,Wunderground v.1.15,2013-06-11 21:40:00,
2013-06-11 15:45:00,100.4,25.2,29.63,East,83,1.0,2.0,7,0.00,,,0.00,Wunderground v.1.15,2013-06-11 21:45:00,
2013-06-11 15:50:00,100.7,25.4,29.63,East,83,0.0,0.0,7,0.00,,,0.00,Wunderground v.1.15,2013-06-11 21:50:00,
2013-06-11 16:00:00,101.1,25.7,29.63,East,83,0.0,0.0,7,0.00,,,0.00,Wunderground v.1.15,2013-06-11 22:00:00,
2013-06-11 16:05:00,101.2,25.8,29.62,East,83,0.0,0.0,7,0.00,,,0.00,Wunderground v.1.15,2013-06-11 22:05:00,
2013-06-11 16:10:00,101.1,22.0,29.62,East,83,0.0,0.0,6,0.00,,,0.00,Wunderground v.1.15,2013-06-11 22:10:00,
2013-06-11 16:15:00,101.1,25.7,29.62,East,83,0.0,0.0,7,0.00,,,0.00,Wunderground v.1.15,2013-06-11 22:15:00,
2013-06-11 16:20:00,101.2,22.1,29.62,East,83,0.0,0.0,6,0.00,,,0.00,Wunderground v.1.15,2013-06-11 22:20:00,
2013-06-11 16:25:00,101.3,22.2,29.61,East,83,0.0,0.0,6,0.00,,,0.00,Wunderground v.1.15,2013-06-11 22:25:00,
2013-06-11 16:30:00,101.5,26.0,29.61,ENE,78,0.0,10.0,7,0.00,,,0.00,Wunderground v.1.15,2013-06-11 22:30:00,
2013-06-11 16:35:00,101.6,22.4,29.61,ENE,77,1.0,10.0,6,0.00,,,0.00,Wunderground v.1.15,2013-06-11 22:35:00,
2013-06-11 16:40:00,101.7,26.2,29.61,ENE,77,0.0,0.0,7,0.00,,,0.00,Wunderground v.1.15,2013-06-11 22:40:00,
2013-06-11 16:45:00,101.7,18.2,29.61,North,10,1.0,3.0,5,0.00,,,0.00,Wunderground v.1.15,2013-06-11 22:45:00,
2013-06-11 16:50:00,101.8,18.2,29.61,North,360,2.0,2.0,5,0.00,,,0.00,Wunderground v.1.15,2013-06-11 22:50:00,
2013-06-11 16:55:00,101.6,18.1,29.61,North,5,2.0,3.0,5,0.00,,,0.00,Wunderground v.1.15,2013-06-11 22:55:00,
2013-06-11 17:00:00,101.4,18.0,29.61,North,5,1.0,1.0,5,0.00,,,0.00,Wunderground v.1.15,2013-06-11 23:00:00,
2013-06-11 17:05:00,101.4,18.0,29.61,North,360,1.0,1.0,5,0.00,,,0.00,Wunderground v.1.15,2013-06-11 23:05:00,
2013-06-11 17:10:00,101.8,18.2,29.60,North,360,1.0,2.0,5,0.00,,,0.00,Wunderground v.1.15,2013-06-11 23:10:00,
2013-06-11 17:15:00,102.0,18.4,29.60,North,5,1.0,2.0,5,0.00,,,0.00,Wunderground v.1.15,2013-06-11 23:15:00,
2013-06-11 17:20:00,102.1,18.5,29.60,North,5,2.0,3.0,5,0.00,,,0.00,Wunderground v.1.15,2013-06-11 23:20:00,
2013-06-11 17:25:00,101.7,18.2,29.60,North,360,2.0,5.0,5,0.00,,,0.00,Wunderground v.1.15,2013-06-11 23:25:00,
2013-06-11 17:30:00,101.4,18.0,29.60,North,360,2.0,2.0,5,0.00,,,0.00,Wunderground v.1.15,2013-06-11 23:30:00,
2013-06-11 17:35:00,101.4,18.0,29.60,North,355,1.0,2.0,5,0.00,,,0.00,Wunderground v.1.15,2013-06-11 23:35:00,
2013-06-11 17:40:00,101.4,18.0,29.60,North,355,1.0,3.0,5,0.00,,,0.00,Wunderground v.1.15,2013-06-11 23:40:00,
2013-06-11 17:45:00,101.3,12.8,29.59,North,350,1.0,3.0,4,0.00,,,0.00,Wunderground v.1.15,2013-06-11 23:45:00,
2013-06-11 17:50:00,100.9,17.6,29.60,North,5,2.0,2.0,5,0.00,,,0.00,Wunderground v.1.15,2013-06-11 23:50:00,
2013-06-11 17:55:00,100.8,17.5,29.60,North,5,1.0,2.0,5,0.00,,,0.00,Wunderground v.1.15,2013-06-11 23:55:00,
2013-06-11 18:00:00,100.7,17.5,29.60,North,360,1.0,1.0,5,0.00,,,0.00,Wunderground v.1.15,2013-06-12 00:00:00,
2013-06-11 18:05:00,100.4,17.3,29.60,North,360,1.0,1.0,5,0.00,,,0.00,Wunderground v.1.15,2013-06-12 00:05:00,
2013-06-11 18:10:00,100.1,11.9,29.59,NNE,12,1.0,1.0,4,0.00,,,0.00,Wunderground v.1.15,2013-06-12 00:10:00,
2013-06-11 18:15:00,100.0,17.0,29.59,NNE,12,1.0,1.0,5,0.00,,,0.00,Wunderground v.1.15,2013-06-12 00:15:00,
2013-06-11 18:20:00,99.9,11.8,29.59,NNE,12,1.0,1.0,4,0.00,,,0.00,Wunderground v.1.15,2013-06-12 00:20:00,
2013-06-11 18:25:00,99.8,16.8,29.59,North,11,1.0,1.0,5,0.00,,,0.00,Wunderground v.1.15,2013-06-12 00:25:00,
2013-06-11 18:30:00,99.8,16.8,29.59,North,11,1.0,7.0,5,0.00,,,0.00,Wunderground v.1.15,2013-06-12 00:30:00,
2013-06-11 18:35:00,99.4,16.6,29.59,North,360,2.0,7.0,5,0.00,,,0.00,Wunderground v.1.15,2013-06-12 00:35:00,
2013-06-11 18:45:00,98.4,10.8,29.59,NNE,13,2.0,2.0,4,0.00,,,0.00,Wunderground v.1.15,2013-06-12 00:45:00,
2013-06-11 18:50:00,98.1,15.7,29.59,NNE,13,1.0,1.0,5,0.00,,,0.00,Wunderground v.1.15,2013-06-12 00:50:00,
2013-06-11 18:55:00,97.8,15.4,29.59,North,11,0.0,1.0,5,0.00,,,0.00,Wunderground v.1.15,2013-06-12 00:55:00,
2013-06-11 19:00:00,97.5,15.2,29.59,North,11,0.0,1.0,5,0.00,,,0.00,Wunderground v.1.15,2013-06-12 01:00:00,
2013-06-11 19:05:00,97.3,15.1,29.59,North,11,0.0,1.0,5,0.00,,,0.00,Wunderground v.1.15,2013-06-12 01:05:00,
2013-06-11 19:10:00,97.1,19.2,29.60,North,11,0.0,1.0,6,0.00,,,0.00,Wunderground v.1.15,2013-06-12 01:10:00,
2013-06-11 19:15:00,96.9,14.8,29.59,North,11,0.0,1.0,5,0.00,,,0.00,Wunderground v.1.15,2013-06-12 01:15:00,
2013-06-11 19:20:00,96.7,14.7,29.60,North,11,0.0,0.0,5,0.00,,,0.00,Wunderground v.1.15,2013-06-12 01:20:00,
2013-06-11 19:30:00,95.9,18.3,29.60,North,11,1.0,4.0,6,0.00,,,0.00,Wunderground v.1.15,2013-06-12 01:30:00,
2013-06-11 19:35:00,95.5,18.0,29.60,North,9,1.0,4.0,6,0.00,,,0.00,Wunderground v.1.15,2013-06-12 01:35:00,
2013-06-11 19:40:00,95.1,17.8,29.60,North,5,1.0,1.0,6,0.00,,,0.00,Wunderground v.1.15,2013-06-12 01:40:00,
2013-06-11 19:45:00,94.8,17.5,29.60,North,5,1.0,1.0,6,0.00,,,0.00,Wunderground v.1.15,2013-06-12 01:45:00,
2013-06-11 19:50:00,94.6,17.4,29.60,North,5,1.0,1.0,6,0.00,,,0.00,Wunderground v.1.15,2013-06-12 01:50:00,
2013-06-11 19:55:00,94.3,17.2,29.61,North,355,2.0,3.0,6,0.00,,,0.00,Wunderground v.1.15,2013-06-12 01:55:00,
2013-06-11 20:00:00,94.1,17.0,29.61,North,355,2.0,2.0,6,0.00,,,0.00,Wunderground v.1.15,2013-06-12 02:00:00,
2013-06-11 20:10:00,93.4,16.5,29.61,North,355,1.0,1.0,6,0.00,,,0.00,Wunderground v.1.15,2013-06-12 02:10:00,
2013-06-11 20:15:00,93.1,16.3,29.61,North,355,1.0,2.0,6,0.00,,,0.00,Wunderground v.1.15,2013-06-12 02:15:00,
2013-06-11 20:20:00,92.7,19.6,29.61,North,355,1.0,1.0,7,0.00,,,0.00,Wunderground v.1.15,2013-06-12 02:20:00,
2013-06-11 20:25:00,92.2,15.7,29.61,North,355,0.0,1.0,6,0.00,,,0.00,Wunderground v.1.15,2013-06-12 02:25:00,
2013-06-11 20:30:00,91.8,19.0,29.62,North,355,1.0,1.0,7,0.00,,,0.00,Wunderground v.1.15,2013-06-12 02:30:00,
2013-06-11 20:35:00,91.6,18.8,29.62,North,355,1.0,1.0,7,0.00,,,0.00,Wunderground v.1.15,2013-06-12 02:35:00,
2013-06-11 20:45:00,91.0,18.4,29.62,North,355,0.0,1.0,7,0.00,,,0.00,Wunderground v.1.15,2013-06-12 02:45:00,
2013-06-11 20:50:00,90.7,18.2,29.62,North,355,0.0,1.0,7,0.00,,,0.00,Wunderground v.1.15,2013-06-12 02:50:00,
2013-06-11 20:55:00,90.4,17.9,29.63,North,355,1.0,1.0,7,0.00,,,0.00,Wunderground v.1.15,2013-06-12 02:55:00,
2013-06-11 21:05:00,89.8,17.5,29.63,North,355,0.0,0.0,7,0.00,,,0.00,Wunderground v.1.15,2013-06-12 03:05:00,
2013-06-11 21:15:00,89.2,20.2,29.63,North,355,0.0,0.0,8,0.00,,,0.00,Wunderground v.1.15,2013-06-12 03:15:00,
2013-06-11 21:25:00,88.4,24.9,29.64,North,355,0.0,0.0,10,0.00,,,0.00,Wunderground v.1.15,2013-06-12 03:25:00,
2013-06-11 21:30:00,87.8,19.1,29.64,North,355,0.0,4.0,8,0.00,,,0.00,Wunderground v.1.15,2013-06-12 03:30:00,
2013-06-11 21:35:00,87.3,26.4,29.65,North,355,0.0,4.0,11,0.00,,,0.00,Wunderground v.1.15,2013-06-12 03:35:00,
2013-06-11 21:40:00,86.8,18.4,29.65,North,355,0.0,0.0,8,0.00,,,0.00,Wunderground v.1.15,2013-06-12 03:40:00,
2013-06-11 21:45:00,86.4,25.7,29.65,North,355,0.0,0.0,11,0.00,,,0.00,Wunderground v.1.15,2013-06-12 03:45:00,
2013-06-11 21:50:00,85.9,23.0,29.65,North,355,0.0,0.0,10,0.00,,,0.00,Wunderground v.1.15,2013-06-12 03:50:00,
2013-06-11 21:55:00,85.4,22.6,29.66,North,355,0.0,0.0,10,0.00,,,0.00,Wunderground v.1.15,2013-06-12 03:55:00,
2013-06-11 22:00:00,84.8,24.4,29.66,North,355,0.0,0.0,11,0.00,,,0.00,Wunderground v.1.15,2013-06-12 04:00:00,
2013-06-11 22:05:00,84.3,26.1,29.66,North,355,0.0,0.0,12,0.00,,,0.00,Wunderground v.1.15,2013-06-12 04:05:00,
2013-06-11 22:10:00,83.9,25.8,29.67,North,355,0.0,0.0,12,0.00,,,0.00,Wunderground v.1.15,2013-06-12 04:10:00,
2013-06-11 22:20:00,83.0,20.8,29.67,North,355,0.0,0.0,10,0.00,,,0.00,Wunderground v.1.15,2013-06-12 04:20:00,
2013-06-11 22:25:00,82.8,22.9,29.68,North,355,0.0,0.0,11,0.00,,,0.00,Wunderground v.1.15,2013-06-12 04:25:00,
2013-06-11 22:30:00,82.6,24.8,29.68,North,355,0.0,0.0,12,0.00,,,0.00,Wunderground v.1.15,2013-06-12 04:30:00,
2013-06-11 22:35:00,82.4,20.3,29.68,North,355,0.0,0.0,10,0.00,,,0.00,Wunderground v.1.15,2013-06-12 04:35:00,
2013-06-11 22:40:00,82.4,22.6,29.68,North,355,0.0,0.0,11,0.00,,,0.00,Wunderground v.1.15,2013-06-12 04:40:00,
2013-06-11 22:45:00,82.2,20.2,29.69,North,355,0.0,0.0,10,0.00,,,0.00,Wunderground v.1.15,2013-06-12 04:45:00,
2013-06-11 22:50:00,82.1,26.4,29.69,North,355,0.0,0.0,13,0.00,,,0.00,Wunderground v.1.15,2013-06-12 04:50:00,
2013-06-11 22:55:00,81.9,26.2,29.69,North,355,0.0,0.0,13,0.00,,,0.00,Wunderground v.1.15,2013-06-12 04:55:00,
2013-06-11 23:05:00,81.2,23.7,29.69,North,355,0.0,0.0,12,0.00,,,0.00,Wunderground v.1.15,2013-06-12 05:05:00,
2013-06-11 23:10:00,80.9,23.5,29.69,North,355,0.0,0.0,12,0.00,,,0.00,Wunderground v.1.15,2013-06-12 05:10:00,
2013-06-11 23:20:00,80.5,25.1,29.69,North,355,0.0,0.0,13,0.00,,,0.00,Wunderground v.1.15,2013-06-12 05:20:00,
2013-06-11 23:25:00,80.2,24.9,29.69,North,355,0.0,0.0,13,0.00,,,0.00,Wunderground v.1.15,2013-06-12 05:25:00,
2013-06-11 23:30:00,79.8,26.3,29.69,North,355,0.0,0.0,14,0.00,,,0.00,Wunderground v.1.15,2013-06-12 05:30:00,
2013-06-11 23:35:00,79.5,26.1,29.69,North,355,0.0,0.0,14,0.00,,,0.00,Wunderground v.1.15,2013-06-12 05:35:00,
2013-06-11 23:40:00,79.1,27.5,29.69,North,355,0.0,0.0,15,0.00,,,0.00,Wunderground v.1.15,2013-06-12 05:40:00,
2013-06-11 23:45:00,78.7,25.5,29.69,North,355,0.0,0.0,14,0.00,,,0.00,Wunderground v.1.15,2013-06-12 05:45:00,
2013-06-11 23:50:00,78.2,26.7,29.69,North,355,0.0,0.0,15,0.00,,,0.00,Wunderground v.1.15,2013-06-12 05:50:00,
2013-06-11 23:55:00,77.7,24.7,29.70,North,355,0.0,0.0,14,0.00,,,0.00,Wunderground v.1.15,2013-06-12 05:55:00,